Location: Drignac
(45.1667°N, 2.0333°E)
Time: 22:44:55
(UTC+00:00)

SL-16 R/B - Pass Details

Date: 29 March 2020
Orbit: 841 x 849 km, 71.0° (Epoch: 26 May)

Event Time Altitude Azimuth Distance (km) Brightness Sun altitude
Rises 18:43:25 0° 176° (S) 3,384 5.2 -5.5°
Reaches altitude 10° 18:46:03 10° 167° (SSE) 2,452 4.4 -6.0°
Maximum altitude 18:51:01 33° 105° (ESE) 1,379 2.8 -6.8°
Drops below altitude 10° 18:56:00 10° 43° (NE) 2,466 4.3 -7.7°
Sets 18:58:39 0° 34° (NE) 3,405 5.1 -8.2°
